Location: ??????
(55.7522°N, 37.6156°E)
Time: 18:04:56
(UTC+00:00)

Cosmos 1782 Rocket - Pass Details

Date: 14 June 2025
Orbit: 602 x 624 km, 82.5° (Epoch: 13 July)

Event Time Altitude Azimuth Distance (km) Brightness Sun altitude
Rises 21:16:33 0° 348° (NNW) 2,904 9.0 -10.9°
Reaches altitude 10° 21:18:47 10° 349° (N) 1,997 7.7 -10.9°
Maximum altitude 21:23:13 82° 78° (ENE) 635 3.6 -10.9°
Enters shadow 21:26:55 15° 166° (SSE) 1,699 5.2 -10.9°
